Weather History for Ely, MN

Change the Weather History Date:

Wednesday, October 24, 2012

  Actual Average Record
Temperature  
Mean Temperature 46 °F -  
Max Temperature 51 °F 45 °F 68 °F (2000)
Min Temperature 42 °F 31 °F 17 °F (2006)
Degree Days  
Heating Degree Days 18    
Moisture  
Dew Point 48 °F    
Average Humidity 94    
Maximum Humidity 100    
Minimum Humidity 87    
Precipitation  
Precipitation 0.15 in - - ()
Sea Level Pressure  
Sea Level Pressure 29.82 in    
Wind  
Wind Speed 2 mph (NW)    
Max Wind Speed 9 mph    
Max Gust Speed -    
Visibility 7 miles    
Events Rain    
Averages and records for this station are not official NWS values.
T = Trace of Precipitation, MM = Missing Value Source: NWS Daily Summary

Daily Weather History Graph

Daily Weather History Graph

Search for Another Location

Airport:

Trip Planner

Search our weather history database for the weather conditions in past years. The results will help you decide how hot, cold, wet, or windy it might be!

Date:

Astronomy

Oct. 24, 2012 Rise Set
Actual Time 7:40 AM CDT 6:01 PM CDT
Civil Twilight 7:08 AM CDT 6:33 PM CDT
Nautical Twilight 6:32 AM CDT 7:09 PM CDT
Astronomical Twilight 5:56 AM CDT 7:45 PM CDT
Moon 3:35 PM CDT (10/24) 2:15 AM CDT (10/24)
Length of Visible Light 11h 24m
Length of Day
10h 21m
Waxing Gibbous, 76% of the Moon is Illuminated
Oct 24
Waxing Gibbous
Oct 29
Full
Nov 6
Last Quarter
Nov 13
New
Nov 20
First Quarter

Hourly Weather History & Observations

Time (CDT) Temp. Windchill Dew Point Humidity Pressure Visibility Wind Dir Wind Speed Gust Speed Precip Events Conditions
12:13 AM 48.2 °F - 48.2 °F 100% 29.75 in 4.0 mi Calm Calm - N/A   Overcast
12:33 AM 50.0 °F - 48.2 °F 94% 29.75 in 5.0 mi Calm Calm - N/A   Overcast
12:53 AM 50.0 °F - 48.2 °F 94% 29.76 in 4.0 mi Calm Calm - N/A   Overcast
1:13 AM 50.0 °F - 48.2 °F 94% 29.76 in 4.0 mi Calm Calm - N/A   Overcast
1:33 AM 50.0 °F - 48.2 °F 94% 29.75 in 4.0 mi SSE 3.5 mph - N/A   Overcast
1:53 AM 51.8 °F - 50.0 °F 94% 29.75 in 3.0 mi Calm Calm - N/A   Overcast
2:13 AM 51.8 °F - 51.8 °F 100% 29.75 in 3.0 mi Calm Calm - N/A   Overcast
2:33 AM 51.8 °F - 51.8 °F 100% 29.76 in 4.0 mi Calm Calm - N/A   Overcast
2:53 AM 51.8 °F - 51.8 °F 100% 29.76 in 4.0 mi SW 3.5 mph - N/A   Overcast
3:13 AM 51.8 °F - 51.8 °F 100% 29.78 in 2.0 mi SW 4.6 mph - N/A   Overcast
3:33 AM 51.8 °F - 51.8 °F 100% 29.78 in 2.0 mi SW 4.6 mph - N/A   Light Drizzle
3:53 AM 51.8 °F - 51.8 °F 100% 29.77 in 2.0 mi Calm Calm - N/A Rain Rain
4:13 AM 51.8 °F - 51.8 °F 100% 29.77 in 3.0 mi Calm Calm - N/A   Overcast
4:33 AM 51.8 °F - 51.8 °F 100% 29.79 in 4.0 mi Calm Calm - N/A   Overcast
4:53 AM 51.8 °F - 51.8 °F 100% 29.81 in 3.0 mi WSW 3.5 mph - N/A   Drizzle
5:13 AM 51.8 °F - 51.8 °F 100% 29.80 in 2.5 mi Calm Calm - N/A Rain Rain
5:33 AM 51.8 °F - 51.8 °F 100% 29.80 in 3.0 mi Calm Calm - N/A   Light Drizzle
5:52 AM 51.8 °F - 51.8 °F 100% 29.79 in 4.0 mi Calm Calm - N/A   Overcast
6:13 AM 51.8 °F - 51.8 °F 100% 29.79 in 3.0 mi Calm Calm - N/A   Overcast
6:33 AM 51.8 °F - 50.0 °F 94% 29.79 in 2.5 mi Calm Calm - N/A   Overcast
6:52 AM 51.8 °F - 50.0 °F 94% 29.81 in 1.8 mi Calm Calm - N/A   Overcast
7:13 AM 51.8 °F - 50.0 °F 94% 29.81 in 2.5 mi Calm Calm - N/A   Overcast
7:32 AM 51.8 °F - 50.0 °F 94% 29.83 in 1.8 mi Calm Calm - N/A   Overcast
7:53 AM 51.8 °F - 50.0 °F 94% 29.82 in 3.0 mi Calm Calm - N/A Rain Light Rain
8:13 AM 51.8 °F - 50.0 °F 94% 29.83 in 2.5 mi Calm Calm - N/A   Overcast
8:33 AM 51.8 °F - 50.0 °F 94% 29.84 in 4.0 mi Calm Calm - N/A   Overcast
8:52 AM 51.8 °F - 50.0 °F 94% 29.86 in 4.0 mi Calm Calm - N/A   Overcast
9:13 AM 51.8 °F - 50.0 °F 94% 29.86 in 3.0 mi Calm Calm - N/A   Overcast
9:33 AM 51.8 °F - 50.0 °F 94% 29.87 in 7.0 mi Calm Calm - N/A   Overcast
9:52 AM 51.8 °F - 50.0 °F 94% 29.86 in 5.0 mi Calm Calm - N/A   Overcast
10:13 AM 51.8 °F - 50.0 °F 94% 29.87 in 7.0 mi Calm Calm - N/A   Overcast
10:33 AM 51.8 °F - 48.2 °F 88% 29.88 in 10.0 mi West 4.6 mph - N/A   Overcast
10:52 AM 51.8 °F - 48.2 °F 88% 29.88 in 10.0 mi WNW 5.8 mph - N/A   Overcast
11:13 AM 51.8 °F - 48.2 °F 88% 29.87 in 7.0 mi NW 5.8 mph - N/A   Overcast
11:33 AM 51.8 °F - 48.2 °F 88% 29.87 in 10.0 mi West 3.5 mph - N/A   Overcast
11:52 AM 50.0 °F - 48.2 °F 94% 29.87 in 10.0 mi Calm Calm - N/A   Overcast
12:13 PM 50.0 °F - 48.2 °F 94% 29.85 in 10.0 mi Calm Calm - N/A   Overcast
12:33 PM 50.0 °F - 48.2 °F 94% 29.84 in 10.0 mi Calm Calm - N/A   Overcast
12:52 PM 50.0 °F - 48.2 °F 94% 29.84 in 10.0 mi Calm Calm - N/A   Overcast
1:13 PM 50.0 °F - 48.2 °F 94% 29.85 in 10.0 mi Calm Calm - N/A   Overcast
1:33 PM 50.0 °F - 48.2 °F 94% 29.84 in 10.0 mi Calm Calm - N/A   Overcast
1:52 PM 50.0 °F - 46.4 °F 87% 29.84 in 10.0 mi Calm Calm - N/A   Overcast
2:13 PM 50.0 °F - 46.4 °F 87% 29.83 in 10.0 mi Calm Calm - N/A   Overcast
2:33 PM 50.0 °F - 46.4 °F 87% 29.83 in 10.0 mi Calm Calm - N/A   Overcast
2:52 PM 50.0 °F - 46.4 °F 87% 29.83 in 10.0 mi NW 3.5 mph - N/A   Overcast
3:13 PM 50.0 °F - 46.4 °F 87% 29.83 in 10.0 mi NNW 5.8 mph - N/A   Overcast
3:33 PM 50.0 °F - 46.4 °F 87% 29.84 in 10.0 mi NW 5.8 mph - N/A Rain Light Rain
4:13 PM 48.2 °F - 46.4 °F 93% 29.82 in 10.0 mi Calm Calm - N/A Rain Light Rain
4:33 PM 48.2 °F - 46.4 °F 93% 29.82 in 7.0 mi Calm Calm - 0.02 in Rain Heavy Rain
4:52 PM 48.2 °F - 46.4 °F 93% 29.83 in 10.0 mi Calm Calm - 0.06 in Rain Rain
5:13 PM 48.2 °F - 46.4 °F 93% 29.82 in 10.0 mi Calm Calm - 0.02 in Rain Rain
5:32 PM 48.2 °F - 46.4 °F 93% 29.83 in 10.0 mi Calm Calm - 0.02 in Rain Light Rain
5:53 PM 48.2 °F - 46.4 °F 93% 29.83 in 10.0 mi NW 4.6 mph - 0.02 in   Overcast
6:13 PM 48.2 °F - 46.4 °F 93% 29.84 in 10.0 mi NNW 3.5 mph - 0.01 in Rain Rain
6:32 PM 48.2 °F - 46.4 °F 93% 29.83 in 10.0 mi NNW 3.5 mph - 0.02 in Rain Light Rain
6:53 PM 46.4 °F 42.4 °F 46.4 °F 100% 29.84 in 10.0 mi NW 8.1 mph - 0.03 in Rain Light Rain
7:13 PM 46.4 °F 42.4 °F 44.6 °F 93% 29.82 in 10.0 mi NNW 8.1 mph - 0.04 in Rain Rain
7:32 PM 46.4 °F 44.3 °F 44.6 °F 93% 29.82 in 10.0 mi NNW 4.6 mph - N/A Rain Light Rain
7:53 PM 44.6 °F 40.7 °F 44.6 °F 100% 29.83 in 10.0 mi NNW 6.9 mph - 0.04 in   Overcast
8:12 PM 44.6 °F 40.2 °F 42.8 °F 93% 29.82 in 10.0 mi NNW 8.1 mph - N/A   Overcast
8:33 PM 44.6 °F 40.7 °F 42.8 °F 93% 29.82 in 10.0 mi NNW 6.9 mph - N/A Rain Rain
8:53 PM 44.6 °F 41.4 °F 42.8 °F 93% 29.82 in 10.0 mi North 5.8 mph - N/A Rain Rain
9:13 PM 44.6 °F - 42.8 °F 93% 29.82 in 10.0 mi Calm Calm - N/A Rain Rain
9:32 PM 44.6 °F 43.1 °F 42.8 °F 93% 29.83 in 10.0 mi NW 3.5 mph - N/A Rain Light Rain
9:53 PM 44.6 °F 42.2 °F 42.8 °F 93% 29.82 in 10.0 mi NNW 4.6 mph - N/A Rain Light Rain
10:13 PM 44.6 °F 42.2 °F 42.8 °F 93% 29.82 in 5.0 mi NNW 4.6 mph - N/A Rain Light Rain
10:32 PM 44.6 °F 42.2 °F 42.8 °F 93% 29.82 in 10.0 mi NNW 4.6 mph - N/A   Overcast
10:53 PM 44.6 °F 40.2 °F 42.8 °F 93% 29.82 in 4.0 mi NW 8.1 mph - N/A   Overcast
11:13 PM 42.8 °F 37.5 °F 42.8 °F 100% 29.82 in 7.0 mi NW 9.2 mph - N/A   Overcast
11:32 PM 42.8 °F 38.0 °F 42.8 °F 100% 29.83 in 7.0 mi NW 8.1 mph - N/A   Overcast
11:53 PM 42.8 °F 38.0 °F 41.0 °F 93% 29.84 in 10.0 mi NW 8.1 mph - N/A   Overcast